Orange, MA

9:31 PM EST on December 09, 2019 (GMT -0500)
Orange Municipal

Weather History for KORE - October, 2019

Change the Weather History Date:

Wednesday, October 16, 2019

  Actual Average Record
Temperature  
Mean Temperature 46 °F -  
Max Temperature 62 °F 57 °F 71 °F (1996)
Min Temperature 30 °F 33 °F 26 °F (2006)
Degree Days  
Heating Degree Days 20    
Moisture  
Dew Point 41 °F    
Average Humidity 77    
Maximum Humidity 92    
Minimum Humidity 50    
Precipitation  
Precipitation 0.92 in - - ()
Sea Level Pressure  
Sea Level Pressure 29.81 in    
Wind  
Wind Speed 4 mph ()    
Max Wind Speed 17 mph    
Max Gust Speed 30 mph    
Visibility 8.0 miles    
Events Rain    
Averages and records for this station are not official NWS values.
T = Trace of Precipitation, MM = Missing Value Source: Averaged Metar Reports

Daily Weather History Graph

Daily Weather History Graph

Search for Another Location

Airport or City:

Astronomy

Oct. 16, 2019 Rise Set
Actual Time 7:03 AM EDT 6:05 PM EDT
Civil Twilight 6:34 AM EDT 6:34 PM EDT
Nautical Twilight 6:01 AM EDT 7:06 PM EDT
Astronomical Twilight 5:29 AM EDT 7:39 PM EDT
Moon 7:54 PM EDT (10/16) 9:33 AM EDT (10/16)
Length of Visible Light 11h 59m
Length of Day
11h 02m
Waning Gibbous, 93% of the Moon is Illuminated
Oct 16
Waning Gibbous
Oct 21
Last Quarter
Oct 27
New
Nov 4
First Quarter
Nov 12
Full

Hourly Weather History & Observations

Time (EDT) Temp. Dew Point Humidity Pressure Visibility Wind Dir Wind Speed Gust Speed Precip Events Conditions
12:52 AM 36.0 °F 33.1 °F 89% 30.10 in 10.0 mi Calm Calm - N/A   Clear
1:52 AM 34.0 °F 30.9 °F 89% 30.11 in 10.0 mi Calm Calm - N/A   Clear
2:52 AM 33.1 °F 30.0 °F 89% 30.11 in 10.0 mi Calm Calm - N/A   Clear
3:52 AM 32.0 °F 28.9 °F 88% 30.10 in 10.0 mi Calm Calm - N/A   Clear
4:52 AM 30.9 °F 28.0 °F 89% 30.09 in 7.0 mi Calm Calm - N/A   Clear
5:52 AM 30.9 °F 28.0 °F 89% 30.08 in 8.0 mi Calm Calm - N/A   Clear
6:52 AM 30.0 °F 28.0 °F 92% 30.07 in 10.0 mi Calm Calm - N/A   Clear
7:52 AM 33.1 °F 30.0 °F 89% 30.09 in 10.0 mi Calm Calm - N/A   Clear
8:52 AM 39.0 °F 34.0 °F 82% 30.04 in 10.0 mi Calm Calm - N/A   Clear
9:52 AM 46.0 °F 37.9 °F 73% 30.01 in 10.0 mi Calm Calm - N/A   Clear
10:52 AM 54.0 °F 41.0 °F 62% 29.99 in 10.0 mi Calm Calm - N/A   Clear
11:52 AM 60.1 °F 43.0 °F 53% 29.95 in 10.0 mi South 11.5 mph - N/A   Clear
12:52 PM 61.0 °F 42.1 °F 50% 29.92 in 10.0 mi SSE 9.2 mph - N/A   Partly Cloudy
1:52 PM 61.0 °F 43.0 °F 52% 29.89 in 10.0 mi SE 9.2 mph - N/A   Mostly Cloudy
2:52 PM 61.0 °F 44.1 °F 54% 29.86 in 10.0 mi SE 11.5 mph - N/A   Overcast
3:52 PM 60.1 °F 44.1 °F 55% 29.83 in 10.0 mi ESE 9.2 mph - N/A   Mostly Cloudy
4:52 PM 59.0 °F 43.0 °F 55% 29.80 in 10.0 mi ESE 13.8 mph 20.7 mph N/A   Overcast
5:38 PM 57.0 °F 43.0 °F 59% 29.76 in 10.0 mi ESE 11.5 mph - N/A   Overcast
5:52 PM 55.9 °F 44.1 °F 64% 29.77 in 6.0 mi East 9.2 mph - 0.02 in Rain Light Rain
6:52 PM 52.0 °F 46.9 °F 83% 29.71 in 5.0 mi Variable 3.5 mph - 0.10 in Rain Rain
7:00 PM 52.0 °F 48.0 °F 86% 29.69 in 5.0 mi Calm Calm - 0.02 in Rain Rain
7:40 PM 52.0 °F 48.0 °F 86% 29.66 in 5.0 mi East 8.1 mph - 0.12 in Rain Rain
7:48 PM 51.8 °F 48.2 °F 88% 29.65 in 6.0 mi East 5.8 mph - 0.14 in Rain Rain
7:52 PM 52.0 °F 48.9 °F 89% 29.66 in 5.0 mi East 8.1 mph - 0.15 in Rain Rain
8:52 PM 52.0 °F 48.9 °F 89% 29.60 in 5.0 mi ENE 11.5 mph - 0.13 in Rain Rain
9:52 PM 54.0 °F 50.0 °F 86% 29.49 in 8.0 mi ENE 11.5 mph 18.4 mph 0.08 in Rain Rain
10:36 PM 55.0 °F 50.0 °F 83% 29.40 in 6.0 mi East 13.8 mph 23.0 mph 0.12 in Rain Heavy Rain
10:52 PM 54.0 °F 50.0 °F 86% 29.37 in 6.0 mi East 16.1 mph 25.3 mph 0.17 in Rain Rain
11:40 PM 55.0 °F 51.1 °F 86% 29.29 in 4.0 mi ENE 17.3 mph 29.9 mph 0.22 in Rain Heavy Rain
11:52 PM 55.0 °F 51.1 °F 86% 29.28 in 4.0 mi East 15.0 mph 21.9 mph 0.27 in Rain Heavy Rain